This demonstration page uses our WeatherBlox Daily Observations layout. Learn more.

Left ArrowRight Arrow

Hourly Observations for August 1, 2020

Temp ( °F °C ) Dew Point ( °F °C ) Humidity (%) Winds ( mph kmh ) Pressure ( in mb ) Visibility ( mi km ) Precip ( " mm )
12:15 am 00:15 Cloudy 69 20.7 64 17.6 83 83 Calm 29.88 1012 10 16 0.00 0.00
12:35 am 00:35 Cloudy 69 20.3 66 18.7 91 91 Calm 29.89 1012 10 16 0.00 0.00
12:55 am 00:55 Cloudy with Light Rain 68 20.1 65 18.6 91 91 S 3 6 29.89 1012 10 16 0.00 0.00
1:15 am 01:15 Cloudy with Heavy Rain 67 19.6 65 18.3 92 92 S 3 6 29.89 1012 10 16 0.00 0.00
1:35 am 01:35 Cloudy with Light Rain 67 19.5 65 18.5 94 94 Calm 29.89 1012 10 16 0.01 0.25
1:55 am 01:55 Cloudy 67 19.5 65 18.1 92 92 Calm 29.88 1012 10 16 0.01 0.25
2:15 am 02:15 Cloudy with Heavy Rain 66 19.1 65 18.4 96 96 SE 8 13 29.88 1012 4 6 0.03 0.76
2:35 am 02:35 Cloudy with Rain 64 18 61 16.2 89 89 NE 9 15 29.87 1012 5 8 0.09 2.29
2:55 am 02:55 Cloudy 64 17.7 61 16.2 91 91 NNE 5 7 29.86 1011 10 16 0.09 2.29
3:15 am 03:15 Cloudy 64 17.7 62 16.8 95 95 N 3 6 29.85 1011 10 16 0.00 0.00
3:35 am 03:35 Cloudy 64 18 63 17.2 95 95 Calm 29.85 1011 10 16 0.00 0.00
3:55 am 03:55 Cloudy with Rain 65 18.1 64 17.5 96 96 Calm 29.85 1011 10 16 0.00 0.00
4:15 am 04:15 Cloudy 65 18.4 64 17.8 96 96 Calm 29.85 1011 10 16 0.00 0.00
4:35 am 04:35 Cloudy 65 18.6 64 17.8 95 95 ENE 3 6 29.85 1011 10 16 0.00 0.00
4:55 am 04:55 Cloudy 66 18.9 63 17.4 91 91 E 5 7 29.85 1011 10 16 0.00 0.00
5:15 am 05:15 Cloudy 66 18.7 64 17.8 95 95 ENE 3 6 29.85 1011 10 16 0.00 0.00
5:35 am 05:35 Cloudy 66 18.8 63 17.2 90 90 ENE 5 7 29.84 1011 10 16 0.00 0.00
5:55 am 05:55 Cloudy 65 18.5 64 17.7 95 95 Calm 29.86 1011 10 16 0.01 0.25
6:15 am 06:15 Cloudy with Heavy Rain 65 18.3 64 17.9 98 98 E 3 6 29.86 1011 5 8 0.03 0.76
6:35 am 06:35 Cloudy with Drizzle 64 18 63 17.1 95 95 E 8 13 29.86 1011 10 16 0.04 1.02
6:55 am 06:55 Cloudy with Drizzle 64 17.8 63 17.4 98 98 NE 8 13 29.86 1011 5 8 0.06 1.52
7:15 am 07:15 Cloudy 64 17.5 62 16.7 95 95 ENE 8 13 29.86 1011 10 16 0.00 0.00
7:35 am 07:35 Cloudy 64 17.5 62 16.7 95 95 NE 9 15 29.86 1011 10 16 0.00 0.00
7:55 am 07:55 Cloudy 63 17.4 62 16.6 95 95 NE 8 13 29.87 1011 10 16 0.00 0.00
8:15 am 08:15 Cloudy 63 17.3 62 16.5 95 95 NE 8 13 29.87 1011 10 16 0.00 0.00
8:35 am 08:35 Cloudy 63 17.4 61 16.3 93 93 NE 12 19 29.87 1011 10 16 0.00 0.00
8:55 am 08:55 Cloudy 64 17.5 62 16.5 94 94 NE 12 19 29.86 1011 10 16 0.00 0.00
9:15 am 09:15 Cloudy 64 17.7 62 16.8 95 95 NE 13 20 29.86 1011 10 16 0.00 0.00
9:35 am 09:35 Cloudy 64 18 63 17 94 94 NE 10 17 29.86 1011 10 16 0.00 0.00
9:55 am 09:55 Cloudy with Light Rain 64 18 63 17.3 96 96 NNE 9 15 29.86 1011 10 16 0.00 0.00
10:15 am 10:15 Cloudy 64 18 63 17.4 96 96 NE 13 20 29.86 1011 7 11 0.00 0.00
10:35 am 10:35 Cloudy with Rain 65 18.3 64 17.7 96 96 NE 8 13 29.86 1011 7 11 0.00 0.00
10:55 am 10:55 Cloudy with Drizzle 65 18.5 64 17.7 95 95 NE 10 17 29.85 1011 7 11 0.00 0.00
11:15 am 11:15 Cloudy 66 18.8 65 18.1 96 96 NE 7 11 29.85 1011 10 16 0.00 0.00
11:35 am 11:35 Cloudy 67 19.5 65 18.5 94 94 NE 7 11 29.85 1011 10 16 0.00 0.00
11:55 am 11:55 Cloudy 67 19.3 65 18.2 93 93 ENE 6 9 29.85 1011 10 16 0.00 0.00
12:15 pm 12:15 Cloudy 67 19.7 65 18.6 93 93 NE 8 13 29.85 1011 10 16 0.00 0.00
12:35 pm 12:35 Cloudy 68 20 65 18.6 92 92 NE 9 15 29.84 1010 10 16 0.00 0.00
12:55 pm 12:55 Cloudy 68 20 65 18.6 92 92 NE 7 11 29.84 1010 10 16 0.00 0.00
1:15 pm 13:15 Cloudy 68 20.2 66 19 93 93 NE 7 11 29.84 1010 10 16 0.00 0.00
1:35 pm 13:35 Cloudy 69 20.6 67 19.2 92 92 NNE 7 11 29.82 1010 10 16 0.00 0.00
1:55 pm 13:55 Cloudy 70 21 67 19.3 90 90 ENE 6 9 29.81 1010 10 16 0.00 0.00
2:15 pm 14:15 Cloudy 71 21.5 67 19.5 88 88 ENE 5 7 29.80 1009 10 16 0.00 0.00
2:35 pm 14:35 Cloudy 71 21.5 67 19.7 90 90 NE 5 7 29.80 1009 10 16 0.00 0.00
2:55 pm 14:55 Cloudy 71 21.4 67 19.6 90 90 NE 5 7 29.80 1009 10 16 0.00 0.00
3:15 pm 15:15 Cloudy 70 21.2 67 19.6 91 91 NE 6 9 29.79 1009 10 16 0.00 0.00
3:35 pm 15:35 Cloudy with Rain 71 21.4 68 20 92 92 NE 6 9 29.78 1009 10 16 0.00 0.00
3:55 pm 15:55 Cloudy with Light Rain 70 21.2 68 20 93 93 NNE 6 9 29.78 1009 10 16 0.00 0.00
4:15 pm 16:15 Cloudy 71 21.4 68 20.1 92 92 NE 6 9 29.78 1009 10 16 0.00 0.00
4:35 pm 16:35 Cloudy with Rain 70 21.3 68 19.9 92 92 N 7 11 29.78 1009 10 16 0.00 0.00
4:55 pm 16:55 Cloudy with Light Rain 70 21.1 68 20 93 93 N 7 11 29.77 1008 10 16 0.00 0.00
5:15 pm 17:15 Cloudy 71 21.5 68 19.8 90 90 N 8 13 29.77 1008 10 16 0.00 0.00
5:35 pm 17:35 Cloudy 70 21.2 68 19.9 92 92 N 5 7 29.77 1008 10 16 0.00 0.00
5:55 pm 17:55 Cloudy 70 21.2 68 19.8 92 92 N 6 9 29.76 1008 10 16 0.00 0.00
6:15 pm 18:15 Cloudy 70 21.1 68 19.8 92 92 N 8 13 29.77 1008 10 16 0.00 0.00
6:35 pm 18:35 Cloudy 70 21.2 68 19.9 92 92 N 6 9 29.77 1008 10 16 0.00 0.00
6:55 pm 18:55 Cloudy 70 21.1 67 19.7 92 92 N 7 11 29.77 1008 10 16 0.00 0.00
7:15 pm 19:15 Cloudy 70 21 68 19.8 93 93 N 9 15 29.76 1008 10 16 0.00 0.00
7:35 pm 19:35 Cloudy with Drizzle 69 20.5 67 19.7 95 95 N 7 11 29.76 1008 10 16 0.00 0.00
7:55 pm 19:55 Cloudy 69 20.5 67 19.7 95 95 N 7 11 29.76 1008 10 16 0.00 0.00
8:15 pm 20:15 Cloudy 69 20.3 67 19.6 96 96 N 3 6 29.78 1008 10 16 0.00 0.00
8:35 pm 20:35 Cloudy with Light Rain 68 20.2 67 19.5 96 96 N 7 11 29.77 1008 10 16 0.00 0.00
8:55 pm 20:55 Cloudy with Light Rain 68 20 67 19.5 97 97 NNE 7 11 29.78 1008 5 8 0.00 0.00
9:15 pm 21:15 Cloudy with Drizzle 68 20 67 19.6 98 98 N 5 7 29.78 1008 4 6 0.00 0.00
9:35 pm 21:35 Cloudy with Drizzle 68 19.8 67 19.6 99 99 N 5 7 29.78 1008 3 4 0.00 0.00
9:55 pm 21:55 Cloudy with Heavy Rain 68 19.8 67 19.6 99 99 N 5 7 29.78 1008 3 4 0.01 0.25
10:15 pm 22:15 Cloudy with Drizzle 68 19.8 67 19.7 99 99 N 3 6 29.78 1008 2 3 0.00 0.00
10:35 pm 22:35 Cloudy with Rain 67 19.6 67 19.5 99 99 NW 5 7 29.78 1008 2 3 0.00 0.00
10:55 pm 22:55 Cloudy with Drizzle 67 19.5 67 19.5 100 100 WNW 6 9 29.79 1009 2 3 0.01 0.25
11:15 pm 23:15 Cloudy with Drizzle 66 19.1 66 19 99 99 NNW 6 9 29.79 1009 2 3 0.00 0.00
11:35 pm 23:35 Cloudy with Rain 66 19 66 18.7 98 98 NNW 9 15 29.79 1009 3 4 0.00 0.00
11:55 pm 23:55 Cloudy with Drizzle 66 18.8 65 18.6 99 99 NW 6 9 29.78 1008 2 3 0.00 0.00

Powered by AerisWeather